Location: Aufkirchen
(47.9603°N, 11.3653°E)
Time: 16:56:23
(UTC+01:00)

Transit 2A - Pass Details

Date: 04 December 2020
Orbit: 599 x 960 km, 66.7° (Epoch: 26 January)

Event Time Altitude Azimuth Distance (km) Brightness Sun altitude
Rises 00:34:08 0° 326° (NW) 3,317 - -63.6°
Reaches altitude 10° 00:36:43 10° 329° (NNW) 2,323 - -63.5°
Maximum altitude 00:41:57 63° 51° (NE) 798 - -63.2°
Drops below altitude 10° 00:46:38 10° 133° (SE) 2,086 - -63.0°
Sets 00:48:51 0° 137° (SE) 2,951 - -62.8°
